Doha, Qatar

10:57 AM AST on August 30, 2016 (GMT +0300)
Doha International

Weather History for OTBD - February, 2014

Change the Weather History Date:

Friday, February 7, 2014

  Actual Average Record
Temperature  
Mean Temperature 59 °F -  
Max Temperature 65 °F 75 °F 80 °F (1998)
Min Temperature 53 °F 58 °F 53 °F (1997)
Degree Days  
Heating Degree Days 6    
Growing Degree Days 9 (Base 50)    
Moisture  
Dew Point 46 °F    
Average Humidity 59    
Maximum Humidity 72    
Minimum Humidity 26    
Precipitation  
Precipitation 0.00 in 0.02 in - ()
Sea Level Pressure  
Sea Level Pressure 30.07 in    
Wind  
Wind Speed 6 mph ()    
Max Wind Speed 12 mph    
Max Gust Speed -    
Visibility 7.3 miles    
Events      
Averages and records for this station are not official NWS values.
T = Trace of Precipitation, MM = Missing Value Source: Averaged Metar Reports

Daily Weather History Graph

Daily Weather History Graph

Search for Another Location

Airport or City:

Trip Planner

Search our weather history database for the weather conditions in past years. The results will help you decide how hot, cold, wet, or windy it might be!

Date:

Astronomy

Feb. 07, 2014 Rise Set
Actual Time 6:13 AM AST 5:22 PM AST
Civil Twilight 5:50 AM AST 5:45 PM AST
Nautical Twilight 5:22 AM AST 6:13 PM AST
Astronomical Twilight 4:55 AM AST 6:40 PM AST
Moon 11:22 AM AST (2/7) 12:03 AM AST (2/7)
Length of Visible Light 11h 55m
Length of Day
11h 08m
First Quarter, 56% of the Moon is Illuminated
Feb 7
First Quarter
Feb 15
Full
Feb 22
Last Quarter
Mar 1
New
Mar 8
First Quarter

Hourly Weather History & Observations

Time (AST) Temp. Dew Point Humidity Pressure Visibility Wind Dir Wind Speed Gust Speed Precip Events Conditions
12:00 AM 56 °F 42 °F 49% 30.06 in 6 mi WNW 5.8 mph - -  
12:00 AM 55.4 °F 42.8 °F 63% 30.06 in - WNW 5.8 mph - N/A   Clear
12:30 AM 55.4 °F 41.0 °F 58% 30.06 in - NW 5.8 mph - N/A   Clear
1:00 AM 55.4 °F 42.8 °F 63% 30.06 in - WNW 6.9 mph - N/A   Clear
1:30 AM 55.4 °F 42.8 °F 63% 30.06 in - NW 6.9 mph - N/A   Clear
2:00 AM 55.4 °F 42.8 °F 63% 30.04 in - WNW 5.8 mph - N/A   Clear
2:30 AM 55.4 °F 42.8 °F 63% 30.04 in - NW 6.9 mph - N/A   Clear
3:00 AM 55 °F 43 °F 55% 30.06 in 7 mi NW 6.9 mph - -  
3:00 AM 55.4 °F 42.8 °F 63% 30.04 in - NW 6.9 mph - N/A   Clear
3:30 AM 53.6 °F 42.8 °F 67% 30.04 in - NW 6.9 mph - N/A   Clear
4:00 AM 53.6 °F 42.8 °F 67% 30.04 in - NW 6.9 mph - N/A   Clear
4:30 AM 53.6 °F 42.8 °F 67% 30.04 in - NW 6.9 mph - N/A   Clear
5:00 AM 53.6 °F 42.8 °F 67% 30.06 in - NW 5.8 mph - N/A   Clear
5:30 AM 53.6 °F 44.6 °F 72% 30.06 in - WNW 6.9 mph - N/A   Clear
6:00 AM 72 °F 44 °F 26% 30.11 in 6 mi WNW 4.6 mph - -   Scattered Clouds
6:00 AM 53.6 °F 44.6 °F 72% 30.09 in - WNW 4.6 mph - N/A   Clear
6:30 AM 53.6 °F 44.6 °F 72% 30.09 in - WSW 3.5 mph - N/A   Clear
7:00 AM 53.6 °F 44.6 °F 72% 30.12 in - WSW 3.5 mph - N/A   Clear
8:00 AM 57.2 °F 44.6 °F 63% 30.12 in - West 3.5 mph - N/A   Clear
8:30 AM 59.0 °F 44.6 °F 59% 30.15 in - WNW 5.8 mph - N/A   Clear
9:00 AM 59 °F 45 °F 49% 30.17 in 7 mi NW 8.1 mph - -   Scattered Clouds
9:00 AM 59.0 °F 44.6 °F 59% 30.15 in - NW 8.1 mph - N/A   Clear
10:00 AM 60.8 °F 46.4 °F 59% 30.15 in 6.2 mi North 4.6 mph - N/A   Partly Cloudy
11:00 AM 62.6 °F 46.4 °F 55% 30.12 in - NNE 5.8 mph - N/A   Clear
11:30 AM 62.6 °F 46.4 °F 55% 30.12 in - NNE 5.8 mph - N/A   Clear
12:00 PM 64 °F 46 °F 41% 30.11 in 9 mi North 8.1 mph - -   Scattered Clouds
12:00 PM 64.4 °F 46.4 °F 52% 30.09 in 6.2 mi North 8.1 mph - N/A   Partly Cloudy
12:30 PM 62.6 °F 46.4 °F 55% 30.09 in 6.2 mi NNE 9.2 mph - N/A   Partly Cloudy
1:00 PM 64.4 °F 46.4 °F 52% 30.06 in - North 10.4 mph - N/A   Clear
1:30 PM 64.4 °F 44.6 °F 49% 30.06 in - North 10.4 mph - N/A   Clear
2:00 PM 64.4 °F 46.4 °F 52% 30.04 in - NNE 9.2 mph - N/A   Clear
2:30 PM 66.2 °F 44.6 °F 46% 30.04 in - NNE 8.1 mph - N/A   Clear
3:00 PM 65 °F 46 °F 38% 30.05 in 9 mi NNE 9.2 mph - -   Scattered Clouds
3:00 PM 64.4 °F 46.4 °F 52% 30.04 in - NNE 9.2 mph - N/A   Clear
3:30 PM 64.4 °F 46.4 °F 52% 30.04 in - NNE 9.2 mph - N/A   Clear
4:00 PM 64.4 °F 48.2 °F 56% 30.04 in - North 11.5 mph - N/A   Clear
4:30 PM 62.6 °F 50.0 °F 63% 30.04 in - NNE 10.4 mph - N/A   Clear
5:00 PM 62.6 °F 50.0 °F 63% 30.04 in - NNE 9.2 mph - N/A   Clear
5:30 PM 62.6 °F 50.0 °F 63% 30.04 in - NNE 9.2 mph - N/A   Clear
6:00 PM 63 °F 49 °F 50% 30.06 in 10 mi NNE 9.2 mph - -   Mostly Cloudy
6:00 PM 62.6 °F 48.2 °F 59% 30.04 in - NNE 9.2 mph - N/A   Clear
6:30 PM 62.6 °F 50.0 °F 63% 30.06 in - NNE 8.1 mph - N/A   Clear
7:00 PM 62.6 °F 50.0 °F 63% 30.06 in - North 8.1 mph - N/A   Clear
7:30 PM 62.6 °F 50.0 °F 63% 30.06 in - North 8.1 mph - N/A   Clear
8:00 PM 62.6 °F 50.0 °F 63% 30.09 in - North 8.1 mph - N/A   Clear
8:30 PM 62.6 °F 50.0 °F 63% 30.06 in - North 6.9 mph - N/A   Clear
9:00 PM 63 °F 50 °F 53% 30.09 in 10 mi North 8.1 mph - -   Mostly Cloudy
9:00 PM 62.6 °F 50.0 °F 63% 30.06 in - North 8.1 mph - N/A   Clear
9:30 PM 62.6 °F 50.0 °F 63% 30.06 in - North 8.1 mph - N/A   Clear
10:00 PM 64.4 °F 50.0 °F 59% 30.06 in - North 9.2 mph - N/A   Clear
10:30 PM 62.6 °F 50.0 °F 63% 30.06 in - North 9.2 mph - N/A   Clear
11:00 PM 62.6 °F 51.8 °F 68% 30.06 in 6.2 mi NNW 8.1 mph - N/A   Mostly Cloudy
11:30 PM 62.6 °F 51.8 °F 68% 30.06 in 6.2 mi North 6.9 mph - N/A   Mostly Cloudy